Printer-friendly version

IAU Minor Planet Center

Minor Planet Center

MPEC 2006-O34 : 2006 OF5

The following Minor Planet Electronic Circular may be linked-to from your own Web pages, but must not otherwise be redistributed electronically.


Read MPEC 2006-O33 Read MPEC 2006-O35


M.P.E.C. 2006-O34                                Issued 2006 July 23, 04:17 UT

     The Minor Planet Electronic Circulars contain information on unusual
         minor planets and routine data on comets.  They are published
   on behalf of Commission 20 of the International Astronomical Union by the
          Minor Planet Center, Smithsonian Astrophysical Observatory,
                          Cambridge, MA 02138, U.S.A.

                  Supported in part by the Brinson Foundation
                  Supported in part by the TABASGO Foundation
             Prepared using the Tamkin Foundation Computer Network

                              MPC@CFA.HARVARD.EDU
          URL http://cfa-www.harvard.edu/iau/mpc.html  ISSN 1523-6714

                                   2006 OF5

Observations:
     K06O05F* C2006 07 21.36551 00 10 44.61 +01 05 17.7          19.9 V EO034G96
     K06O05F  C2006 07 21.37464 00 10 46.56 +01 05 16.4          20.0 V EO034G96
     K06O05F  C2006 07 21.37922 00 10 47.56 +01 05 15.5          19.8 V EO034G96
     K06O05F  C2006 07 21.43171 00 10 58.80 +01 05 07.9          20.1 V EO034G96
     K06O05F  C2006 07 21.43289 00 10 59.05 +01 05 07.8          20.2 V EO034G96
     K06O05F  C2006 07 21.43406 00 10 59.30 +01 05 07.6          20.1 V EO034G96
     K06O05F  C2006 07 21.43523 00 10 59.55 +01 05 07.4          20.1 V EO034G96
     K06O05F  C2006 07 21.47399 00 11 07.83 +01 05 01.5          20.0 V EO034G96
     K06O05F  C2006 07 21.47452 00 11 07.94 +01 05 01.6          20.1 V EO034G96
     K06O05F  C2006 07 21.47506 00 11 08.08 +01 05 01.4          20.1 V EO034G96
     K06O05F  C2006 07 21.47561 00 11 08.19 +01 05 01.5          20.0 V EO034G96
     K06O05F  C2006 07 22.34875 00 14 20.92 +01 02 39.6          20.2 V EO034G96
     K06O05F  C2006 07 22.35219 00 14 21.66 +01 02 39.5          20.2 V EO034G96
     K06O05F  C2006 07 22.35763 00 14 22.84 +01 02 38.5          20.0 V EO034G96
     K06O05F  C2006 07 22.35910 00 14 23.13 +01 02 38.1          20.2 V EO034G96
     K06O05F  C2006 07 22.36057 00 14 23.46 +01 02 37.8          20.1 V EO034G96
     K06O05F  C2006 07 22.36205 00 14 23.78 +01 02 37.6          20.0 V EO034G96
     K06O05F  C2006 07 22.36521 00 14 24.26 +01 02 35.1          20.4 R EO034734
     K06O05F  C2006 07 22.36744 00 14 24.70 +01 02 35.1          20.3 R EO034734
     K06O05F  C2006 07 23.09031 00 17 03.32 +01 00 20.5                 EO034J95
     K06O05F  C2006 07 23.09916 00 17 05.19 +01 00 16.7          20.0 R EO034J95

Observer details:
734 Farpoint Observatory.  Observer G. Hug.  0.7-m reflector + CCD.
G96 Mt. Lemmon Survey.  Observer E. J. Christensen.  Measurers E. C. Beshore,
    E. J. Christensen, G. J. Garradd, A. R. Gibbs, A. D. Grauer, R. E. Hill,
    R. A. Kowalski, S. M. Larson, R. H. McNaught.  1.5-m reflector + CCD.
J95 Great Shefford.  Observer P. Birtwhistle.  0.40-m f/6.0 Schmidt-Cassegrain
    + CCD.

Orbital elements:
2006 OF5                                                 Earth MOID = 0.2744 AU
Epoch 2006 July 4.0 TT = JDT 2453920.5                  MPC
M 353.13443              (2000.0)            P               Q
n   0.19787011     Peri.  194.72087     +0.88408337     +0.45150989
a   2.9166384      Node   137.75956     -0.40859458     +0.87201764
e   0.5604382      Incl.   10.33156     -0.22681943     +0.18900807
P   4.98           H   19.5           G   0.15
From 21 observations 2006 July 21-23.

Ephemeris:
2006 OF5                 a,e,i = 2.92, 0.56, 10                  q = 1.2820
Date    TT    R. A. (2000) Decl.     Delta      r     Elong.  Phase     V
2006 07 24    00 20.36   +00 57.5    0.471    1.293   115.8    45.0    20.1
2006 08 03    00 55.85   -00 00.5    0.446    1.283   117.5    44.6    20.0
2006 08 13    01 28.16   -01 38.5    0.432    1.283   119.8    43.3    19.9
2006 08 23    01 55.44   -03 47.8    0.426    1.294   123.0    41.0    19.8
2006 09 02    02 16.32   -06 15.6    0.429    1.314   127.2    37.7    19.8
2006 09 12    02 30.17   -08 45.8    0.439    1.343   132.5    33.6    19.8
2006 09 22    02 37.01   -11 02.5    0.457    1.380   138.5    28.8    19.8
2006 10 02    02 37.60   -12 48.6    0.483    1.423   144.7    23.9    19.8
2006 10 12    02 33.65   -13 49.8    0.521    1.473   150.1    19.7    19.9
2006 10 22    02 27.24   -13 59.4    0.573    1.528   153.0    17.2    20.1
2006 11 01    02 20.60   -13 18.0    0.639    1.587   152.4    16.8    20.4
2006 11 11    02 15.51   -11 54.7    0.721    1.648   148.5    18.3    20.8
2006 11 21    02 12.90   -10 01.9    0.819    1.712   142.6    20.5    21.3
2006 12 01    02 13.15   -07 50.9    0.933    1.778   135.8    22.8    21.7

Gareth V. Williams           (C) Copyright 2006 MPC           M.P.E.C. 2006-O34

Read MPEC 2006-O33 Read MPEC 2006-O35


Our Web policy. Index to the CBAT/MPC/ICQ pages.


Valid HTML 4.01!